When you browse on this site, cookies collect data to enhance your experience and personalize the content and advertising you see.
Visit our Privacy Policy to learn more. By continuing to use the site, you agree to this use of cookies and data.
  • In Sweden
  • List of Countries
  • For 7 days
  • Water Temperature
  • Weather Map
  • Weather Widgets
  • user-avatar
    Login

    Hourly Weather Viedma

    Today, 22 October, Tuesday

    Time Temperature Precipitation Wind Pressure Humidity
    00:00 +7°C° 0.7 mm 8 mps 756 mmHg 76%
    01:00 +7°C° 0.7 mm 8 mps 755 mmHg 76%
    02:00 +7°C° 0 mm 9 mps 755 mmHg 77%
    03:00 +7°C° 0.6 mm 9 mps 755 mmHg 79%
    04:00 +7°C° 0.6 mm 10 mps 755 mmHg 82%
    05:00 +7°C° 0.6 mm 11 mps 755 mmHg 84%
    06:00 +8°C° 0.3 mm 10 mps 756 mmHg 85%
    07:00 +8°C° 0.3 mm 9 mps 756 mmHg 86%
    08:00 +9°C° 0.3 mm 8 mps 757 mmHg 87%
    09:00 +10°C° 0.3 mm 8 mps 757 mmHg 81%
    10:00 +11°C° 0.3 mm 7 mps 757 mmHg 75%
    11:00 +12°C° 0.3 mm 7 mps 757 mmHg 69%
    12:00 +12°C° 0.1 mm 7 mps 758 mmHg 68%
    13:00 +12°C° 0.1 mm 7 mps 758 mmHg 66%
    14:00 +12°C° 0.1 mm 8 mps 758 mmHg 65%
    15:00 +11°C° 0.1 mm 7 mps 758 mmHg 71%
    16:00 +11°C° 0.1 mm 7 mps 758 mmHg 76%
    17:00 +10°C° 0.1 mm 7 mps 758 mmHg 82%
    18:00 +9°C° 0 mm 6 mps 758 mmHg 83%
    19:00 +9°C° 0 mm 6 mps 759 mmHg 83%
    20:00 +9°C° 0 mm 5 mps 759 mmHg 83%
    21:00 +8°C° 0 mm 5 mps 759 mmHg 86%
    22:00 +8°C° 0 mm 4 mps 759 mmHg 89%
    23:00 +8°C° 0 mm 3 mps 759 mmHg 91%

    Tomorrow, 23 October, Wednesday

    Time Temperature Precipitation Wind Pressure Humidity
    00:00 +8°C° 0 mm 4 mps 759 mmHg 90%
    01:00 +8°C° 0 mm 4 mps 759 mmHg 89%
    02:00 +8°C° 0 mm 4 mps 758 mmHg 88%
    03:00 +8°C° 0 mm 4 mps 759 mmHg 88%
    04:00 +8°C° 0 mm 4 mps 759 mmHg 89%
    05:00 +7°C° 0 mm 4 mps 759 mmHg 90%
    06:00 +9°C° 0 mm 5 mps 759 mmHg 84%
    07:00 +10°C° 0 mm 6 mps 759 mmHg 78%
    08:00 +11°C° 0 mm 6 mps 760 mmHg 72%
    09:00 +12°C° 0 mm 7 mps 760 mmHg 67%
    10:00 +14°C° 0 mm 7 mps 760 mmHg 63%
    11:00 +15°C° 0 mm 7 mps 760 mmHg 58%
    12:00 +15°C° 0 mm 7 mps 759 mmHg 56%
    13:00 +15°C° 0 mm 6 mps 759 mmHg 54%
    14:00 +16°C° 0 mm 6 mps 758 mmHg 51%
    15:00 +15°C° 0 mm 6 mps 758 mmHg 54%
    16:00 +14°C° 0 mm 5 mps 758 mmHg 57%
    17:00 +14°C° 0 mm 5 mps 757 mmHg 60%
    18:00 +12°C° 0 mm 4 mps 757 mmHg 68%
    19:00 +11°C° 0 mm 3 mps 757 mmHg 77%
    20:00 +9°C° 0 mm 2 mps 757 mmHg 86%
    21:00 +9°C° 0 mm 2 mps 757 mmHg 87%
    22:00 +8°C° 0 mm 2 mps 757 mmHg 89%
    23:00 +9°C° 0 mm 1 mps 757 mmHg 91%

    Day after tomorrow, 24 October, Thursday

    Time Temperature Precipitation Wind Pressure Humidity
    00:00 +8°C° 0 mm 1 mps 757 mmHg 91%
    01:00 +8°C° 0 mm 1 mps 756 mmHg 91%
    02:00 +7°C° 0 mm 0 mps 756 mmHg 91%
    03:00 +6°C° 0 mm 0 mps 756 mmHg 91%
    04:00 +7°C° 0 mm 1 mps 756 mmHg 90%
    05:00 +7°C° 0 mm 1 mps 756 mmHg 90%
    06:00 +10°C° 0 mm 1 mps 756 mmHg 79%
    07:00 +12°C° 0 mm 2 mps 756 mmHg 69%
    08:00 +14°C° 0 mm 2 mps 756 mmHg 59%
    09:00 +17°C° 0 mm 3 mps 755 mmHg 51%
    10:00 +19°C° 0 mm 4 mps 755 mmHg 42%
    11:00 +22°C° 0 mm 5 mps 755 mmHg 34%
    12:00 +25°C° 0 mm 5 mps 754 mmHg 30%
    13:00 +26°C° 0 mm 5 mps 753 mmHg 26%
    14:00 +28°C° 0 mm 5 mps 752 mmHg 22%
    15:00 +26°C° 0 mm 5 mps 752 mmHg 27%
    16:00 +25°C° 0 mm 5 mps 752 mmHg 33%
    17:00 +22°C° 0 mm 5 mps 751 mmHg 39%
    18:00 +20°C° 0 mm 5 mps 751 mmHg 46%
    19:00 +17°C° 0 mm 5 mps 752 mmHg 53%
    20:00 +15°C° 0 mm 5 mps 752 mmHg 60%
    21:00 +15°C° 0 mm 4 mps 752 mmHg 58%
    22:00 +16°C° 0 mm 3 mps 752 mmHg 55%
    23:00 +16°C° 0 mm 2 mps 752 mmHg 52%

    25 October, Friday

    Time Temperature Precipitation Wind Pressure Humidity
    00:00 +15°C° 0 mm 2 mps 751 mmHg 54%
    01:00 +15°C° 0 mm 2 mps 751 mmHg 55%
    02:00 +15°C° 0 mm 2 mps 751 mmHg 57%
    03:00 +14°C° 0 mm 3 mps 751 mmHg 61%
    04:00 +13°C° 0 mm 4 mps 752 mmHg 65%
    05:00 +13°C° 0 mm 5 mps 752 mmHg 69%
    06:00 +15°C° 0 mm 7 mps 753 mmHg 61%
    07:00 +16°C° 0 mm 9 mps 754 mmHg 53%
    08:00 +18°C° 0 mm 10 mps 754 mmHg 45%
    09:00 +19°C° 0 mm 9 mps 755 mmHg 42%
    10:00 +20°C° 0 mm 8 mps 755 mmHg 39%
    11:00 +21°C° 0 mm 7 mps 755 mmHg 36%
    12:00 +22°C° 0 mm 7 mps 755 mmHg 34%
    13:00 +22°C° 0 mm 7 mps 755 mmHg 31%
    14:00 +23°C° 0 mm 6 mps 755 mmHg 29%
    15:00 +22°C° 0 mm 6 mps 755 mmHg 28%
    16:00 +22°C° 0 mm 5 mps 755 mmHg 26%
    17:00 +22°C° 0 mm 4 mps 755 mmHg 25%
    18:00 +20°C° 0 mm 3 mps 755 mmHg 27%
    19:00 +18°C° 0 mm 3 mps 755 mmHg 30%
    20:00 +16°C° 0 mm 2 mps 755 mmHg 32%
    21:00 +15°C° 0 mm 2 mps 755 mmHg 37%
    22:00 +13°C° 0 mm 3 mps 755 mmHg 41%
    23:00 +13°C° 0 mm 3 mps 755 mmHg 46%

    26 October, Saturday

    Time Temperature Precipitation Wind Pressure Humidity
    00:00 +12°C° 0 mm 3 mps 755 mmHg 52%
    01:00 +12°C° 0 mm 3 mps 754 mmHg 57%
    02:00 +12°C° 0 mm 3 mps 754 mmHg 62%
    03:00 +12°C° 0 mm 3 mps 754 mmHg 61%
    04:00 +12°C° 0 mm 3 mps 753 mmHg 61%
    05:00 +12°C° 0 mm 3 mps 753 mmHg 60%
    06:00 +14°C° 0 mm 4 mps 753 mmHg 55%
    07:00 +16°C° 0 mm 5 mps 753 mmHg 50%
    08:00 +19°C° 0 mm 6 mps 753 mmHg 45%
    09:00 +21°C° 0 mm 6 mps 752 mmHg 39%
    10:00 +22°C° 0 mm 6 mps 752 mmHg 33%
    11:00 +24°C° 0 mm 6 mps 751 mmHg 27%
    12:00 +26°C° 0.1 mm 5 mps 751 mmHg 27%
    13:00 +26°C° 0.1 mm 5 mps 750 mmHg 28%
    14:00 +26°C° 0.1 mm 4 mps 750 mmHg 28%
    15:00 +25°C° 0.1 mm 5 mps 749 mmHg 34%
    16:00 +24°C° 0.1 mm 6 mps 748 mmHg 40%
    17:00 +23°C° 0.1 mm 7 mps 748 mmHg 46%
    18:00 +20°C° 1.4 mm 8 mps 748 mmHg 58%
    19:00 +17°C° 1.4 mm 9 mps 748 mmHg 69%
    20:00 +15°C° 1.4 mm 9 mps 748 mmHg 81%
    21:00 +13°C° 0 mm 8 mps 748 mmHg 85%
    22:00 +14°C° 0 mm 7 mps 748 mmHg 88%
    23:00 +13°C° 0 mm 5 mps 748 mmHg 92%

    27 October, Sunday

    Time Temperature Precipitation Wind Pressure Humidity
    00:00 +14°C° 0 mm 6 mps 749 mmHg 82%
    01:00 +14°C° 0 mm 7 mps 749 mmHg 71%
    02:00 +14°C° 0 mm 7 mps 749 mmHg 60%
    03:00 +12°C° 0 mm 7 mps 750 mmHg 54%
    04:00 +10°C° 0 mm 6 mps 751 mmHg 47%
    05:00 +9°C° 0 mm 6 mps 751 mmHg 40%
    06:00 +10°C° 0 mm 7 mps 752 mmHg 36%
    07:00 +12°C° 0 mm 8 mps 752 mmHg 32%
    08:00 +15°C° 0 mm 9 mps 753 mmHg 28%
    09:00 +15°C° 0 mm 8 mps 753 mmHg 26%
    10:00 +16°C° 0 mm 8 mps 753 mmHg 23%
    11:00 +17°C° 0 mm 8 mps 753 mmHg 21%
    12:00 +17°C° 0 mm 7 mps 753 mmHg 20%
    13:00 +18°C° 0 mm 7 mps 753 mmHg 18%
    14:00 +20°C° 0 mm 6 mps 753 mmHg 17%
    15:00 +20°C° 0 mm 5 mps 753 mmHg 17%
    16:00 +20°C° 0 mm 4 mps 752 mmHg 16%
    17:00 +20°C° 0 mm 4 mps 752 mmHg 16%
    18:00 +17°C° 0 mm 4 mps 752 mmHg 22%
    19:00 +14°C° 0 mm 4 mps 752 mmHg 28%
    20:00 +12°C° 0 mm 4 mps 753 mmHg 34%
    21:00 +11°C° 0 mm 3 mps 753 mmHg 38%
    22:00 +10°C° 0 mm 3 mps 753 mmHg 41%
    23:00 +10°C° 0 mm 2 mps 753 mmHg 45%

    28 October, Monday

    Time Temperature Precipitation Wind Pressure Humidity
    00:00 +10°C° 0 mm 2 mps 753 mmHg 43%
    01:00 +10°C° 0 mm 2 mps 753 mmHg 40%
    02:00 +10°C° 0 mm 2 mps 753 mmHg 38%
    03:00 +9°C° 0 mm 2 mps 753 mmHg 42%
    04:00 +9°C° 0 mm 2 mps 753 mmHg 47%
    05:00 +8°C° 0 mm 2 mps 753 mmHg 52%
    06:00 +12°C° 0 mm 2 mps 753 mmHg 45%
    07:00 +13°C° 0 mm 3 mps 753 mmHg 38%
    08:00 +16°C° 0 mm 3 mps 753 mmHg 31%
    09:00 +17°C° 0 mm 5 mps 753 mmHg 25%
    10:00 +18°C° 0 mm 7 mps 753 mmHg 20%
    11:00 +21°C° 0 mm 9 mps 752 mmHg 15%
    12:00 +22°C° 0 mm 9 mps 752 mmHg 16%
    13:00 +23°C° 0 mm 10 mps 751 mmHg 17%
    14:00 +23°C° 0 mm 11 mps 750 mmHg 18%
    15:00 +23°C° 0 mm 10 mps 750 mmHg 19%
    16:00 +23°C° 0 mm 10 mps 749 mmHg 19%
    17:00 +23°C° 0 mm 9 mps 748 mmHg 20%
    18:00 +21°C° 0 mm 7 mps 748 mmHg 22%
    19:00 +19°C° 0 mm 5 mps 748 mmHg 25%
    20:00 +18°C° 0 mm 4 mps 748 mmHg 27%
    21:00 +17°C° 0 mm 4 mps 748 mmHg 27%
    22:00 +15°C° 0 mm 4 mps 748 mmHg 28%
    23:00 +15°C° 0 mm 4 mps 748 mmHg 29%
    Show more